Time,TemperatureF,DewpointF,PressureIn,WindDirection,WindDirectionDegrees,WindSpeedMPH,WindSpeedGustMPH,Humidity,HourlyPrecipIn,Conditions,Clouds,dailyrainin,SoftwareType,DateUTC
2013-05-22 00:14:00,73.4,71.0,30.04,WSW,238,11.0,12.0,91,0.00,,,0.00,weatherlink.com 1.10,2013-05-22 04:14:00,
2013-05-22 00:29:00,73.5,71.0,30.04,SW,217,8.0,11.0,91,0.00,,,0.00,weatherlink.com 1.10,2013-05-22 04:29:00,
2013-05-22 00:44:00,73.3,71.0,30.04,SW,225,6.0,11.0,91,0.00,,,0.00,weatherlink.com 1.10,2013-05-22 04:44:00,
2013-05-22 00:59:00,73.4,71.0,30.04,SSW,210,8.0,12.0,91,0.00,,,0.00,weatherlink.com 1.10,2013-05-22 04:59:00,
2013-05-22 01:14:00,73.5,71.0,30.04,SSW,206,8.0,15.0,91,0.00,,,0.00,weatherlink.com 1.10,2013-05-22 05:14:00,
2013-05-22 01:29:00,73.5,71.0,30.04,SSW,193,6.0,12.0,91,0.00,,,0.00,weatherlink.com 1.10,2013-05-22 05:29:00,
2013-05-22 01:44:00,73.5,71.0,30.03,SW,215,10.0,13.0,92,0.00,,,0.00,weatherlink.com 1.10,2013-05-22 05:44:00,
2013-05-22 01:59:00,73.5,71.0,30.03,WSW,238,10.0,12.0,91,0.00,,,0.00,weatherlink.com 1.10,2013-05-22 05:59:00,
2013-05-22 02:14:00,73.4,71.0,30.03,SW,231,8.0,10.0,92,0.00,,,0.00,weatherlink.com 1.10,2013-05-22 06:14:00,
2013-05-22 02:29:00,73.3,71.0,30.04,WSW,242,3.0,8.0,91,0.00,,,0.00,weatherlink.com 1.10,2013-05-22 06:29:00,
2013-05-22 02:44:00,73.0,70.0,30.04,West,259,4.0,6.0,91,0.00,,,0.00,weatherlink.com 1.10,2013-05-22 06:44:00,
2013-05-22 02:59:00,73.0,71.0,30.04,SW,224,4.0,7.0,92,0.00,,,0.00,weatherlink.com 1.10,2013-05-22 06:59:00,
2013-05-22 03:14:00,73.2,71.0,30.04,SW,218,7.0,7.0,92,0.00,,,0.00,weatherlink.com 1.10,2013-05-22 07:14:00,
2013-05-22 03:29:00,73.0,71.0,30.03,SW,232,6.0,7.0,92,0.00,,,0.00,weatherlink.com 1.10,2013-05-22 07:29:00,
2013-05-22 03:44:00,73.0,71.0,30.04,SW,215,5.0,7.0,93,0.00,,,0.00,weatherlink.com 1.10,2013-05-22 07:44:00,
2013-05-22 03:59:00,73.0,71.0,30.04,SW,216,6.0,7.0,93,0.00,,,0.00,weatherlink.com 1.10,2013-05-22 07:59:00,
2013-05-22 04:14:00,72.9,71.0,30.04,SW,231,6.0,7.0,93,0.00,,,0.00,weatherlink.com 1.10,2013-05-22 08:14:00,
2013-05-22 04:29:00,72.9,71.0,30.04,SW,235,5.0,6.0,93,0.00,,,0.00,weatherlink.com 1.10,2013-05-22 08:29:00,
2013-05-22 04:44:00,72.9,71.0,30.04,SSW,208,4.0,8.0,94,0.00,,,0.00,weatherlink.com 1.10,2013-05-22 08:44:00,
2013-05-22 05:14:00,73.0,71.0,30.03,SSW,211,9.0,10.0,94,0.00,,,0.00,weatherlink.com 1.10,2013-05-22 09:14:00,
2013-05-22 05:29:00,72.9,71.0,30.03,SSW,207,7.0,10.0,93,0.00,,,0.00,weatherlink.com 1.10,2013-05-22 09:29:00,
2013-05-22 05:44:00,73.0,71.0,30.03,SSW,205,7.0,9.0,94,0.00,,,0.00,weatherlink.com 1.10,2013-05-22 09:44:00,
2013-05-22 05:59:00,73.0,71.0,30.03,SSW,200,8.0,10.0,94,0.00,,,0.00,weatherlink.com 1.10,2013-05-22 09:59:00,
2013-05-22 06:14:00,73.1,71.0,30.03,SSW,200,8.0,11.0,94,0.00,,,0.00,weatherlink.com 1.10,2013-05-22 10:14:00,
2013-05-22 06:29:00,73.1,71.0,30.03,SSW,201,7.0,11.0,94,0.00,,,0.00,weatherlink.com 1.10,2013-05-22 10:29:00,
2013-05-22 06:44:00,73.4,72.0,30.04,SSW,208,9.0,10.0,94,0.00,,,0.00,weatherlink.com 1.10,2013-05-22 10:44:00,
2013-05-22 06:59:00,73.5,71.0,30.04,SSW,211,8.0,9.0,93,0.00,,,0.00,weatherlink.com 1.10,2013-05-22 10:59:00,
2013-05-22 07:14:00,73.3,71.0,30.04,SSW,203,7.0,10.0,93,0.00,,,0.00,weatherlink.com 1.10,2013-05-22 11:14:00,
2013-05-22 07:29:00,73.4,71.0,30.04,SSW,204,5.0,8.0,93,0.00,,,0.00,weatherlink.com 1.10,2013-05-22 11:29:00,
2013-05-22 07:45:00,73.7,72.0,30.05,SW,214,3.0,7.0,94,0.00,,,0.00,weatherlink.com 1.10,2013-05-22 11:45:00,
2013-05-22 08:00:00,73.9,72.0,30.05,WSW,238,5.0,5.0,92,0.00,,,0.00,weatherlink.com 1.10,2013-05-22 12:00:00,
2013-05-22 08:15:00,73.9,72.0,30.05,SW,222,5.0,7.0,92,0.00,,,0.00,weatherlink.com 1.10,2013-05-22 12:15:00,
2013-05-22 08:30:00,74.0,71.0,30.05,SW,231,6.0,7.0,91,0.00,,,0.00,weatherlink.com 1.10,2013-05-22 12:30:00,
2013-05-22 08:45:00,74.3,72.0,30.06,SW,226,5.0,6.0,91,0.00,,,0.00,weatherlink.com 1.10,2013-05-22 12:45:00,
2013-05-22 09:00:00,74.7,72.0,30.06,SW,232,6.0,6.0,91,0.00,,,0.00,weatherlink.com 1.10,2013-05-22 13:00:00,
2013-05-22 09:15:00,75.4,72.0,30.06,SW,226,4.0,6.0,90,0.00,,,0.00,weatherlink.com 1.10,2013-05-22 13:15:00,
2013-05-22 09:30:00,76.1,72.0,30.05,SSW,211,8.0,9.0,88,0.00,,,0.00,weatherlink.com 1.10,2013-05-22 13:30:00,
2013-05-22 09:45:00,76.5,72.0,30.06,SSW,212,9.0,12.0,86,0.00,,,0.00,weatherlink.com 1.10,2013-05-22 13:45:00,
2013-05-22 10:00:00,76.9,72.0,30.06,SW,223,9.0,12.0,85,0.00,,,0.00,weatherlink.com 1.10,2013-05-22 14:00:00,
2013-05-22 10:15:00,77.4,73.0,30.06,SSW,213,6.0,10.0,85,0.00,,,0.00,weatherlink.com 1.10,2013-05-22 14:15:00,
2013-05-22 10:30:00,77.7,71.0,30.06,SW,215,10.0,12.0,81,0.00,,,0.00,weatherlink.com 1.10,2013-05-22 14:30:00,
2013-05-22 10:45:00,77.8,71.0,30.06,SSW,205,10.0,12.0,79,0.00,,,0.00,weatherlink.com 1.10,2013-05-22 14:45:00,
2013-05-22 11:00:00,78.2,72.0,30.06,SSW,201,8.0,12.0,81,0.00,,,0.00,weatherlink.com 1.10,2013-05-22 15:00:00,
2013-05-22 11:15:00,78.3,72.0,30.07,SSW,200,9.0,12.0,80,0.00,,,0.00,weatherlink.com 1.10,2013-05-22 15:15:00,
2013-05-22 11:30:00,78.5,71.0,30.07,SSW,212,10.0,13.0,78,0.00,,,0.00,weatherlink.com 1.10,2013-05-22 15:30:00,
2013-05-22 11:45:00,78.6,71.0,30.07,South,186,9.0,13.0,78,0.00,,,0.00,weatherlink.com 1.10,2013-05-22 15:45:00,
2013-05-22 12:00:00,78.7,72.0,30.06,SSW,207,8.0,14.0,79,0.00,,,0.00,weatherlink.com 1.10,2013-05-22 16:00:00,
2013-05-22 12:15:00,78.8,71.0,30.06,SSW,203,9.0,16.0,78,0.00,,,0.00,weatherlink.com 1.10,2013-05-22 16:15:00,
2013-05-22 12:30:00,78.8,71.0,30.06,SSW,195,14.0,16.0,76,0.00,,,0.00,weatherlink.com 1.10,2013-05-22 16:30:00,
2013-05-22 12:45:00,79.0,72.0,30.05,SW,215,10.0,15.0,79,0.00,,,0.00,weatherlink.com 1.10,2013-05-22 16:45:00,
2013-05-22 13:00:00,78.9,72.0,30.05,SSW,193,11.0,16.0,78,0.00,,,0.00,weatherlink.com 1.10,2013-05-22 17:00:00,
2013-05-22 13:15:00,78.8,71.0,30.05,SSW,192,13.0,17.0,77,0.00,,,0.00,weatherlink.com 1.10,2013-05-22 17:15:00,
2013-05-22 13:30:00,78.9,72.0,30.04,South,186,15.0,17.0,78,0.00,,,0.00,weatherlink.com 1.10,2013-05-22 17:30:00,
2013-05-22 13:45:00,78.7,71.0,30.04,SW,221,15.0,18.0,78,0.00,,,0.00,weatherlink.com 1.10,2013-05-22 17:45:00,
2013-05-22 14:00:00,78.6,70.0,30.04,SW,215,15.0,20.0,76,0.00,,,0.00,weatherlink.com 1.10,2013-05-22 18:00:00,
2013-05-22 14:15:00,78.8,72.0,30.04,SSW,201,16.0,19.0,79,0.00,,,0.00,weatherlink.com 1.10,2013-05-22 18:15:00,
2013-05-22 14:30:00,78.8,72.0,30.03,SSW,210,16.0,19.0,80,0.00,,,0.00,weatherlink.com 1.10,2013-05-22 18:30:00,
2013-05-22 14:45:00,79.0,73.0,30.03,SW,223,18.0,19.0,81,0.00,,,0.00,weatherlink.com 1.10,2013-05-22 18:45:00,
2013-05-22 15:00:00,78.9,72.0,30.03,SSW,210,15.0,20.0,79,0.00,,,0.00,weatherlink.com 1.10,2013-05-22 19:00:00,
2013-05-22 15:15:00,79.0,72.0,30.03,South,190,13.0,19.0,80,0.00,,,0.00,weatherlink.com 1.10,2013-05-22 19:15:00,
2013-05-22 15:30:00,79.0,72.0,30.03,SSW,210,14.0,18.0,78,0.00,,,0.00,weatherlink.com 1.10,2013-05-22 19:30:00,
2013-05-22 15:45:00,79.1,72.0,30.02,SW,214,16.0,17.0,78,0.00,,,0.00,weatherlink.com 1.10,2013-05-22 19:45:00,
2013-05-22 16:00:00,79.0,71.0,30.02,South,186,11.0,19.0,77,0.00,,,0.00,weatherlink.com 1.10,2013-05-22 20:00:00,
2013-05-22 16:15:00,78.7,71.0,30.02,SSW,201,14.0,20.0,78,0.00,,,0.00,weatherlink.com 1.10,2013-05-22 20:15:00,
2013-05-22 16:30:00,78.6,72.0,30.01,SW,219,14.0,18.0,79,0.00,,,0.00,weatherlink.com 1.10,2013-05-22 20:30:00,
2013-05-22 16:45:00,78.6,72.0,30.01,SSW,207,11.0,19.0,80,0.00,,,0.00,weatherlink.com 1.10,2013-05-22 20:45:00,
2013-05-22 17:00:00,78.4,72.0,30.00,SSW,201,16.0,18.0,80,0.00,,,0.00,weatherlink.com 1.10,2013-05-22 21:00:00,
2013-05-22 17:15:00,78.2,72.0,30.00,SSW,205,11.0,18.0,80,0.00,,,0.00,weatherlink.com 1.10,2013-05-22 21:15:00,
2013-05-22 17:30:00,78.0,72.0,30.00,SSW,207,10.0,21.0,82,0.00,,,0.00,weatherlink.com 1.10,2013-05-22 21:30:00,
2013-05-22 17:46:00,77.8,72.0,30.00,SW,232,14.0,19.0,82,0.00,,,0.00,weatherlink.com 1.10,2013-05-22 21:46:00,
2013-05-22 18:00:00,77.6,71.0,30.00,SW,221,12.0,20.0,81,0.00,,,0.00,weatherlink.com 1.10,2013-05-22 22:00:00,
2013-05-22 18:15:00,77.6,73.0,30.00,SW,219,16.0,20.0,84,0.00,,,0.00,weatherlink.com 1.10,2013-05-22 22:15:00,
2013-05-22 18:30:00,77.5,72.0,30.00,SSW,201,14.0,21.0,82,0.00,,,0.00,weatherlink.com 1.10,2013-05-22 22:30:00,
2013-05-22 18:46:00,77.2,72.0,30.00,SW,225,16.0,20.0,84,0.00,,,0.00,weatherlink.com 1.10,2013-05-22 22:46:00,
2013-05-22 19:01:00,77.1,72.0,30.00,SSW,210,14.0,19.0,84,0.00,,,0.00,weatherlink.com 1.10,2013-05-22 23:01:00,
2013-05-22 19:16:00,76.9,73.0,30.00,SSW,205,11.0,17.0,86,0.00,,,0.00,weatherlink.com 1.10,2013-05-22 23:16:00,
2013-05-22 19:31:00,76.4,72.0,30.00,SW,221,12.0,18.0,86,0.00,,,0.00,weatherlink.com 1.10,2013-05-22 23:31:00,
2013-05-22 19:46:00,76.1,72.0,30.00,SSW,205,10.0,16.0,87,0.00,,,0.00,weatherlink.com 1.10,2013-05-22 23:46:00,
2013-05-22 20:01:00,76.0,72.0,30.00,SSW,197,9.0,13.0,87,0.00,,,0.00,weatherlink.com 1.10,2013-05-23 00:01:00,
2013-05-22 20:16:00,75.8,72.0,30.00,SSW,207,9.0,14.0,88,0.00,,,0.00,weatherlink.com 1.10,2013-05-23 00:16:00,
2013-05-22 20:31:00,75.5,72.0,30.00,SSW,198,9.0,15.0,89,0.00,,,0.00,weatherlink.com 1.10,2013-05-23 00:31:00,
2013-05-22 20:46:00,75.3,72.0,30.00,SSW,211,11.0,13.0,88,0.00,,,0.00,weatherlink.com 1.10,2013-05-23 00:46:00,
2013-05-22 21:01:00,75.1,72.0,30.00,SSW,199,10.0,15.0,89,0.00,,,0.00,weatherlink.com 1.10,2013-05-23 01:01:00,
2013-05-22 21:16:00,74.8,72.0,30.00,South,181,10.0,12.0,91,0.00,,,0.00,weatherlink.com 1.10,2013-05-23 01:16:00,
2013-05-22 21:31:00,74.7,72.0,30.01,SSW,198,8.0,13.0,91,0.00,,,0.00,weatherlink.com 1.10,2013-05-23 01:31:00,
2013-05-22 21:46:00,74.5,72.0,30.02,SSW,194,9.0,13.0,91,0.00,,,0.00,weatherlink.com 1.10,2013-05-23 01:46:00,
2013-05-22 22:01:00,74.2,72.0,30.02,South,183,7.0,11.0,91,0.00,,,0.00,weatherlink.com 1.10,2013-05-23 02:01:00,
2013-05-22 22:16:00,74.0,72.0,30.03,SSW,194,7.0,10.0,92,0.00,,,0.00,weatherlink.com 1.10,2013-05-23 02:16:00,
2013-05-22 22:31:00,73.8,71.0,30.03,South,177,6.0,8.0,92,0.00,,,0.00,weatherlink.com 1.10,2013-05-23 02:31:00,
2013-05-22 22:46:00,73.6,72.0,30.03,SSW,198,7.0,8.0,93,0.00,,,0.00,weatherlink.com 1.10,2013-05-23 02:46:00,
2013-05-22 23:01:00,73.6,72.0,30.03,SSW,192,8.0,8.0,93,0.00,,,0.00,weatherlink.com 1.10,2013-05-23 03:01:00,
2013-05-22 23:16:00,73.7,72.0,30.02,South,190,6.0,8.0,94,0.00,,,0.00,weatherlink.com 1.10,2013-05-23 03:16:00,
2013-05-22 23:31:00,73.7,72.0,30.02,South,174,6.0,8.0,94,0.00,,,0.00,weatherlink.com 1.10,2013-05-23 03:31:00,
2013-05-22 23:46:00,73.7,72.0,30.02,South,189,5.0,9.0,94,0.00,,,0.00,weatherlink.com 1.10,2013-05-23 03:46:00,